Regional Weather Roundup
Issued by NWS

Home | Current Version | Previous Version | Text Only | Print | Product List | Glossary On
Versions: 1 2 3 4 5 6 7 8 9 10 11 12 13 14 15 16 17 18 19 20 21 22 23 24 25 26 27 28 29 30 31 32 33 34 35 36 37 38 39 40 41 42 43 44 45 46 47 48 49 50
000
ASUS45 KREV 221910
RWRNV
NEVADA REGIONAL WEATHER ROUNDUP
NATIONAL WEATHER SERVICE RENO NV
1200 PM PDT TUE JUL 22 2014

NOTE: "FAIR" INDICATES FEW OR NO CLOUDS BELOW 12,000 FEET WITH NO
SIGNIFICANT WEATHER AND/OR OBSTRUCTIONS TO VISIBILITY.

NVZ001-003-004-222000-
WESTERN NEVADA

CITY           SKY/WX    TMP DP  RH WIND       PRES   REMARKS
RENO           CLOUDY    81  50  33 CALM      30.18F
CARSON CITY    FAIR      79  45  29 CALM      30.20F
SLIDE MTN        N/A     57  45  62 SW1         N/A
PYRAMID LAKE     N/A     73 N/A N/A N6          N/A
FALLON         PTSUNNY   85  49  28 NE9       30.15F
LOVELOCK       MOSUNNY   83  47  28 VRB6      30.15F
HAWTHORNE      SUNNY     81  50  34 CALM      30.16F
$$

NVZ002-CAZ072-073-222000-
NORTHERN AND CENTRAL SIERRA

CITY           SKY/WX    TMP DP  RH WIND       PRES   REMARKS
S. LAKE TAHOE  MOSUNNY   74  45  35 NE8G17    30.29S
TRUCKEE        PTSUNNY   73  43  33 W6        30.28F
SQUAW VLY 8000 NOT AVBL
BLUE CANYON    PTSUNNY   71  47  42 S7        30.27S
MAMMOTH LAKES  FAIR      79  32  18 E10G18    30.33F
BRIDGEPORT     FAIR      77  32  19 SW14G21   30.27F
$$

NVZ030-031-036-222000-
NORTHERN NEVADA

CITY           SKY/WX    TMP DP  RH WIND       PRES   REMARKS
ELKO           SUNNY     85  41  21 MISG      30.22F
WINNEMUCCA     MOSUNNY   82  48  30 VRB6      30.18F
WENDOVER       SUNNY     84  45  24 SE9       30.21F
$$

NVZ035-037-222000-
CENTRAL NEVADA

CITY           SKY/WX    TMP DP  RH WIND       PRES   REMARKS
ELY            SUNNY     88  17   7 SE22G30   30.30F
EUREKA           N/A     86  26  11 S10G20    30.26F
$$

NVZ013-014-222000-
SOUTH CENTRAL NEVADA

CITY           SKY/WX    TMP DP  RH WIND       PRES   REMARKS
TONOPAH        SUNNY     88  28  11 S22       30.24F
$$

NVZ017-020-022-222000-
SOUTHERN NEVADA

CITY           SKY/WX    TMP DP  RH WIND       PRES   REMARKS
LAS VEGAS      SUNNY     98  26   7 VRB5      30.00F
N. LAS VEGAS   SUNNY     97  20   6 SW3       30.03F
NELLIS AFB     SUNNY     99  29   8 SW5       30.01F
HENDERSON      SUNNY     99  29   8 CALM      30.07F
MERCURY        SUNNY     94  30  10 SW9       30.10F
$$



USA.gov is the U.S. government's official web portal to all federal, state and local government web resources and services.